Location: Okie-Tex Star Party
(36.8978°N, 102.9520°W)
Time: 13:56:19
(UTC-05:00)

Daily predictions for brighter satellites

Satellite Brightness Start Highest point End
(mag) Time Altitude Azimuth Time Altitude Azimuth Time Altitude Azimuth
Meteor 1-23 Rocket 4.4 20:38:55 10° N 20:44:36 82° W 20:50:21 10° S
Lacrosse 5 rocket 1.0 20:42:21 10° NW 20:46:06 83° NE 20:49:41 10° SE
SL-24 R/B - RUBIN 2 4.4 20:41:00 10° SSW 20:46:43 79° ESE 20:53:09 10° NNE
Cosmos 2084 4.2 20:43:33 10° NNW 20:47:19 34° NE 20:51:15 10° ESE
Meteor 2-15 4.4 20:46:08 10° N 20:52:13 81° E 20:58:16 10° S
SJ-6B 4.0 20:49:03 10° S 20:52:37 44° W 20:56:14 10° NNW
USA 186 3.2 20:54:01 10° ESE 20:56:09 18° ENE 20:58:11 10° NNE
Cosmos 2297 Rocket 2.3 20:50:54 10° NNW 20:56:31 64° ENE 21:02:07 10° SSE
FengYun 1-2 T 4.3 20:51:31 10° SSE 20:57:05 66° ENE 21:02:38 10° N
Cosmos 1821 Rocket 4.4 20:52:07 10° SSW 20:58:11 67° W 21:04:15 10° N
Cosmos 2082 3.7 20:53:45 10° NNW 20:59:24 88° ENE 21:05:02 10° SSE
Cosmos 1626 Rocket 4.0 20:55:14 10° N 20:59:24 41° E 21:03:30 10° SSE
Meteor 2-15 Rocket 4.4 20:53:38 10° N 20:59:43 79° E 21:05:47 10° S
Cosmos 220 Rocket 4.1 20:56:17 10° N 21:00:25 54° ENE 21:04:33 10° SSE
Cosmos 1605 Rocket 4.0 20:55:11 10° S 21:01:29 74° E 21:07:43 10° N
Cosmos 1455 Rocket 3.4 20:57:20 10° SSW 21:01:39 71° W 21:06:00 10° N
Cosmos 1892 Rocket 4.4 20:57:58 10° NNW 21:02:22 57° W 21:06:44 10° S
Cosmos 2298 Rocket 4.5 20:57:20 10° N 21:02:25 42° ENE 21:07:26 10° SE
ALOS 2.5 20:59:16 10° SSE 21:03:45 50° ENE 21:08:16 10° N
Cosmos 1515 4.5 21:02:27 10° NNE 21:05:57 32° ENE 21:09:24 10° SE
OAO 2 Rocket 3.3 21:03:13 10° W 21:08:10 72° S 21:12:34 14° E
Okean 2 4.4 21:05:24 10° NNW 21:09:25 51° W 21:13:25 10° S
Cosmos 1602 Rocket 3.7 21:05:46 10° N 21:10:09 56° E 21:14:27 10° SSE
ERS-1 Rocket 4.3 21:08:47 13° ESE 21:11:52 21° ENE 21:15:37 10° NNE
Cosmos 1346 Rocket 3.7 21:09:44 10° NNW 21:13:36 52° W 21:17:30 10° S
Helios 1B rocket 4.0 21:10:46 10° N 21:14:37 40° WNW 21:18:28 10° SW
BREEZE-M DEB (TANK) 4.1 21:14:37 10° N 21:15:28 11° NNE 21:16:31 10° NE
Meteor 1-12 Rocket 4.3 21:11:43 10° S 21:17:27 89° E 21:23:20 10° N
Tiangong 1 1.8 21:16:46 10° WNW 21:19:46 42° NNE 21:21:38 19° E
Cosmos 1763 Rocket 4.0 21:18:46 10° SSE 21:23:22 35° E 21:27:57 10° NE
Cosmos 1743 3.6 21:20:17 11° SSE 21:23:36 30° E 21:27:02 10° NNE
Resurs 1-3 4.3 21:19:29 10° S 21:23:47 55° W 21:28:07 10° NNW
Cosmos 1939 Rocket 4.4 21:23:17 17° E 21:24:27 19° ENE 21:27:26 10° NNE
Cosmos 2150 Rocket 4.0 21:22:14 10° N 21:27:21 63° ENE 21:31:51 14° SSE
Cosmos 1697 Rocket 2.7 21:21:44 10° SSW 21:27:23 88° WNW 21:33:04 10° NNE
Cosmos 2061 Rocket 4.3 21:23:48 10° SSE 21:29:46 46° E 21:35:41 10° NNE
Cosmos 1459 Rocket 4.0 21:30:38 10° SSE 21:36:29 54° E 21:42:24 10° NNE
Cosmos 1066 Rocket 4.2 21:31:46 10° N 21:37:28 66° E 21:43:02 11° SSE
Cosmos 1898 Rocket 3.4 21:32:10 10° NNW 21:37:29 83° ENE 21:42:03 14° SSE
Cosmos 1606 Rocket 4.1 21:38:27 23° SE 21:40:32 36° E 21:44:37 10° NNE
Cosmos 2058 Rocket 4.3 21:40:58 23° E 21:40:58 23° E 21:44:17 10° NE
SL-16 R/B 3.2 21:41:42 24° ESE 21:41:43 24° E 21:46:10 10° NE
Cosmos 468 Rocket 4.4 21:39:17 10° SSW 21:44:20 64° WNW 21:49:27 10° NNE
Cosmos 841 Rocket 3.5 21:43:29 10° S 21:48:35 55° ESE 21:53:41 10° NNE
Cosmos 1980 Rocket 2.1 21:46:12 10° SSW 21:51:52 89° ESE 21:57:36 10° NNE
ASTEX 1 4.4 21:47:55 10° NNE 21:51:52 27° E 21:51:52 27° E
RESURS DK-1 2.2 21:48:13 10° NNW 21:52:24 87° ENE 21:54:08 34° SSE
H-2A R/B 3.6 21:48:45 10° S 21:52:31 50° W 21:56:22 10° NNW
DELTA 2 R/B (1) 4.0 21:47:22 10° WNW 21:52:45 51° SSW 21:55:21 29° SSE
Resurs 01 Rocket 4.3 21:50:08 10° SW 21:53:21 20° W 21:56:35 10° NW
Cosmos 1726 Rocket 3.6 22:01:45 45° SE 22:02:42 56° E 22:07:01 10° NNE
Cosmos 1666 3.9 22:04:42 27° NE 22:04:42 27° NE 22:06:49 10° NNE
SL-08 R/B 4.4 22:14:23 24° S 22:18:16 70° E 22:24:24 10° NNE
Cosmos 2263 Rocket 3.6 22:14:09 10° N 22:18:16 21° NE 22:18:16 21° NE
Lacrosse 5 2.4 22:14:46 10° NW 22:19:41 52° SW 22:21:09 39° S
Cosmos 1825 Rocket 3.7 22:15:51 10° N 22:20:15 73° W 22:21:22 48° SSW
Cosmos 1340 2.8 22:18:41 10° NNW 22:22:27 72° W 22:22:27 72° W
Cosmos 1802 Rocket 4.2 22:16:54 10° SSW 22:23:17 74° W 22:29:44 10° N
Cosmos 2322 Rocket 2.0 22:25:06 45° S 22:26:42 66° ESE 22:32:17 10° NNE
SPOT 5 3.1 22:27:02 52° ENE 22:27:02 52° ENE 22:31:25 10° N
Cosmos 2016 Rocket 4.0 22:21:45 10° S 22:27:51 81° W 22:34:05 10° N
Cosmos 2228 4.3 22:32:39 29° NNE 22:32:39 29° NNE 22:34:54 10° NNE
Envisat 2.9 22:29:51 57° S 22:30:54 83° WSW 22:36:00 10° NNW
H-2A R/B 2.5 22:32:10 51° NNE 22:32:10 51° NNE 22:35:24 10° N
Cosmos 1953 Rocket 3.6 22:28:09 10° N 22:32:37 74° W 22:32:54 71° SW
MetOp-A 4.2 22:33:26 57° ENE 22:33:26 57° ENE 22:38:39 10° N
Terra 4.2 22:42:37 11° NE 22:42:37 11° NE 22:43:03 10° NNE
Meteor 2-9 Rocket 4.1 22:39:17 51° SSW 22:40:43 84° W 22:46:09 10° N
Nimbus 7 Rocket 4.4 22:36:08 10° NNE 22:42:14 87° WNW 22:45:06 34° SSW
Meteor 1-15 Rocket 4.2 22:44:38 55° SSW 22:46:01 87° W 22:51:54 10° N
ERS-1 Rocket 4.1 22:48:48 31° SW 22:50:20 40° W 22:55:04 10° NNW
Cosmos 1758 Rocket 4.3 22:46:36 10° NNW 22:50:24 49° WNW 22:50:24 49° WNW
OAO 2 Rocket 4.3 22:47:58 10° W 22:51:31 38° WSW 22:51:31 38° WSW
Tiangong 1 4.4 22:53:20 10° W 22:53:36 12° W 22:53:36 12° W
H-2A R/B 3.8 23:06:07 21° NNE 23:06:07 21° NNE 23:08:03 10° N
Meteor 2-17 Rocket 4.4 23:08:20 72° N 23:08:20 72° N 23:13:44 10° N
Tsikada Rocket 4.3 23:08:21 10° NNW 23:14:41 63° W 23:15:15 60° WSW
ARGOS 3.9 23:20:35 48° NNW 23:20:35 48° NNW 23:24:25 10° NNW
USA 215 4.4 23:24:24 31° NE 23:25:04 32° NNE 23:30:41 10° NNW
SL-16 R/B 3.3 23:23:20 30° WSW 23:25:30 42° WNW 23:30:53 10° N
Cosmos 2360 Rocket 4.2 23:40:15 20° NNE 23:40:15 20° NNE 23:41:54 10° NNE
BREEZE-M DEB (TANK) 4.4 23:11:50 10° WNW 23:37:51 69° NNE 23:38:37 65° ENE
BREEZE-M DEB (TANK) 4.0 23:23:59 10° NW 23:37:50 63° N 23:37:50 63° N
